Location: Llanddausaint
(53.4167°N, 4.4833°W)
Time: 03:55:48
(UTC+00:00)

Daily predictions for brighter satellites

Satellite Brightness Start Highest point End
(mag) Time Altitude Azimuth Time Altitude Azimuth Time Altitude Azimuth
USA 215 4.5 03:22:06 10° E 03:25:42 36° E 03:25:42 36° E
Cosmos 1943 Rocket 3.8 04:06:39 29° SE 04:07:41 31° ESE 04:12:35 10° NE
CZ-2C R/B 4.2 04:06:40 10° ESE 04:11:25 31° ENE 04:13:24 24° NNE
CENTAUR R/B 3.5 04:16:09 36° SSE 04:17:27 40° ESE 04:23:58 10° NE
NOSS 3-2 (A) 3.9 04:27:49 52° SE 04:28:08 52° SE 04:34:31 10° NE
Cosmos 2278 Rocket 3.4 04:33:50 33° NNE 04:33:50 33° NNE 04:36:59 10° NNE
Meteor 2-3 Rocket 4.4 04:38:20 10° S 04:43:50 54° E 04:49:25 10° NNE
Cosmos 921 Rocket 4.4 04:50:35 34° SE 04:50:35 34° SE 04:53:11 10° SSE
DNEPR-1 R/B 4.2 04:53:14 62° E 04:53:14 62° E 04:57:54 10° SE
Meteor 1-26 Rocket 4.2 04:53:50 61° N 04:54:58 86° ENE 05:00:48 10° SSE
Cosmos 1812 4.5 04:56:57 29° SE 04:56:57 29° SE 04:59:08 10° SSE
H-2A R/B 4.5 04:55:23 10° ESE 04:58:33 20° ENE 05:01:46 10° N
Cosmos 1151 Rocket 3.8 05:01:35 46° NE 05:02:16 50° ENE 05:06:32 10° SSE
USA 238 DEB 4.0 05:00:10 27° SSW 05:03:45 60° SE 05:10:32 10° NE
USA 238 4.0 05:00:14 27° SSW 05:03:51 60° SE 05:10:38 10° NE
Cosmos 2344 3.5 05:03:35 43° SW 05:06:25 87° SE 05:14:36 10° NE
USA 215 3.2 05:05:15 10° SE 05:11:45 67° SSW 05:13:04 55° W
Cosmos 1816 Rocket 4.3 05:07:03 19° SSW 05:11:45 76° WNW 05:18:07 10° N
Cosmos 2297 Rocket 4.2 05:09:40 15° N 05:12:28 20° NNE 05:16:39 10° ENE
Cosmos 2279 Rocket 4.3 05:06:35 10° N 05:12:45 64° ENE 05:18:53 10° SSE
Meteor 1-31 Rocket 4.3 05:09:12 10° NNE 05:12:49 35° E 05:16:26 10° SSE
Cosmos 1328 Rocket 4.4 05:12:41 25° N 05:14:56 49° ENE 05:19:11 10° SSE
METEOR-M 4.3 05:11:20 10° N 05:15:42 53° NNW 05:15:42 53° NNW
Cosmos 2369 Rocket 3.1 05:16:41 10° S 05:22:01 49° ESE 05:27:24 10° NE
COSMO-SKYMED 1 2.4 05:21:35 10° SSE 05:25:48 81° SW 05:25:48 81° SW
H-2A R/B 3.0 05:22:38 10° NNE 05:26:20 64° ESE 05:30:03 10° S
Cosmos 1634 Rocket 3.9 05:21:36 10° NNW 05:27:54 74° W 05:34:06 10° S
Cosmos 836 Rocket 4.3 05:27:51 53° NW 05:29:04 77° WSW 05:34:17 10° SSE
Lacrosse 4 Rocket 3.8 05:33:37 13° N 05:34:44 14° NNE 05:37:12 10° NE
Cosmos 2263 Rocket 4.3 05:36:27 11° NNW 05:38:24 13° N 05:41:04 10° NE
Tsikada Rocket 3.9 05:33:24 10° SSW 05:39:33 63° WNW 05:45:50 10° N
YAOGAN 6 3.4 05:37:44 10° N 05:40:14 40° N 05:40:14 40° N
CZ-4B R/B 4.0 05:39:38 10° ESE 05:42:02 19° ENE 05:44:25 10° NNE
MOS 1-B Rocket 4.0 05:36:24 10° S 05:42:24 50° W 05:44:43 33° NW
Cosmos 1656 Rocket 4.4 05:40:25 10° S 05:45:39 53° ESE 05:50:57 10° NE
CZ-4C R/B 3.3 05:43:40 10° SSE 05:46:01 47° S 05:46:01 47° S
DMSP B5D2-2 4.3 05:42:16 10° SSE 05:47:27 70° ENE 05:52:39 10° NNW
Cosmos 2227 Rocket 4.0 05:44:04 12° NNW 05:48:01 23° NNE 05:52:30 10° E
Cosmos 1943 Rocket 2.2 05:48:15 29° WSW 05:51:08 61° NW 05:56:46 10° NNE
CZ-2C R/B 2.7 05:46:08 10° S 05:51:31 55° W 05:54:54 22° NNW
Cosmos 1486 Rocket 4.1 05:48:34 10° SSW 05:53:52 78° ESE 05:59:10 10° NNE
Cosmos 1515 Rocket 3.8 05:50:55 10° N 05:55:19 67° ENE 05:59:39 10° SSE
Meteor 2-15 4.4 05:50:23 10° N 05:56:29 85° ENE 06:02:33 10° SSE
FALCON 9 DEB 3.0 05:56:51 61° SSE 05:56:51 61° SSE 05:59:40 10° E
Cosmos 2180 Rocket 4.4 05:51:55 10° NNW 05:58:09 84° W 06:04:17 10° S
Meteor 1-27 Rocket 4.1 05:52:34 10° N 05:58:09 65° ENE 06:03:50 10° SSE
COSMOS 2487 4.1 05:59:58 15° N 06:02:08 29° NE 06:05:07 10° ESE
Cosmos 773 Rocket 4.0 05:58:38 19° NNW 06:02:30 86° ENE 06:07:42 10° SSE
FALCON 9 DEB 2.6 06:03:16 72° S 06:03:20 73° SSE 06:06:11 10° E
Iridium 2 3.7 05:59:44 10° SSW 06:03:27 55° W 06:07:12 10° N
Cosmos 2084 Rocket 3.7 06:04:32 39° NW 06:04:49 40° NNW 06:08:33 10° NE
FALCON 9 DEB 2.5 06:05:16 74° SSW 06:05:22 76° S 06:08:14 10° E
Cosmos 2297 3.9 06:03:08 23° WSW 06:06:34 51° NW 06:12:10 10° NNE
NOAA 11 4.5 06:01:43 10° NNE 06:07:12 70° ESE 06:12:41 10° S
SJ 16-02 3.7 06:04:07 10° SSE 06:07:46 26° E 06:11:26 10° NE
CENTAUR R/B 2.7 06:03:21 21° WSW 06:07:46 68° NW 06:15:22 10° NE
Alouette 2 Rocket 4.2 06:04:36 10° N 06:08:46 48° ENE 06:12:14 10° SE
Envisat 3.0 06:08:30 10° N 06:13:29 55° WNW 06:18:25 10° SW
SKYMED 2 4.3 06:10:21 10° SSW 06:14:13 31° W 06:14:24 30° W
SL-27 R/B 2.4 06:14:04 28° NNW 06:15:53 85° WSW 06:19:27 10° SSE
Meteor 2-8 Rocket 4.4 06:09:56 10° NNW 06:16:02 64° W 06:22:03 10° S
Cosmos 2278 Rocket 3.5 06:15:42 20° NW 06:16:35 21° NNW 06:20:50 10° NNE
Meteor 2-6 Rocket 4.3 06:12:03 11° NNW 06:17:01 48° W 06:22:10 10° SSW
Cosmos 1939 Rocket 4.0 06:15:06 10° NNE 06:18:56 45° E 06:22:41 10° S
NOSS 3-2 (A) 3.7 06:15:15 23° W 06:19:02 55° NNW 06:25:56 10° NE
CZ-4B R/B 4.2 06:17:44 10° N 06:22:01 50° WNW 06:26:21 10° SW
FALCON 9 DEB 2.7 06:21:30 39° WSW 06:22:24 73° S 06:25:18 10° E
Landsat 5 4.3 06:19:06 10° SSW 06:23:10 32° W 06:24:58 24° NW
Cosmos 2098 Rocket 3.4 06:20:14 10° SW 06:24:12 46° WNW 06:29:14 10° N
Aureole 1 Rocket 3.9 06:26:23 19° NNW 06:26:23 19° NNW 06:27:58 10° N
NOSS 3-2 (C) 3.5 06:21:05 12° WSW 06:26:28 68° NW 06:33:22 10° NE
Meteor 2-3 Rocket 4.4 06:22:18 10° SW 06:27:22 32° WNW 06:32:30 10° N
Cosmos 968 Rocket 3.8 06:23:39 10° SW 06:28:32 42° NW 06:33:25 10° NNE
Cosmos 1812 4.3 06:32:03 18° WSW 06:32:03 18° WSW 06:33:44 10° SW
Okean 3 Rocket 3.8 06:28:27 10° SSW 06:32:52 51° WNW 06:37:20 10° N
Meteor 1-10 Rocket 4.4 06:27:55 10° NNW 06:33:17 49° W 06:38:34 10° SSW
H-2A R/B 2.0 06:29:49 10° S 06:34:04 68° WSW 06:38:27 10° NNW
SJ-7 4.4 06:30:25 10° N 06:34:38 71° WNW 06:38:47 10° SSW
ATLAS 3B R/B 4.4 06:29:43 10° S 06:35:32 35° ESE 06:41:36 10° NE
ADEOS 3.5 06:32:23 10° NNE 06:37:35 66° WNW 06:42:45 10° SSW
Cosmos 158 Rocket 4.0 06:32:46 10° NNW 06:37:53 81° ENE 06:43:05 10° SSE
ATLAS 5 CENTAUR R/B 3.8 06:35:56 10° S 06:39:12 26° ESE 06:42:50 10° ENE
Cosmos 1151 Rocket 4.2 06:38:29 20° WNW 06:39:31 22° W 06:42:54 10° SW
Cosmos 1515 3.7 06:40:03 10° N 06:43:52 86° ENE 06:47:40 10° S
Okean 1 4.1 06:40:53 10° N 06:44:47 52° ENE 06:48:39 10° SSE
Meteor PRIRODA 3.5 06:41:25 10° N 06:45:01 63° WNW 06:48:35 10° SSW
CZ-2C R/B 2.8 06:41:07 10° NNE 06:45:56 75° WNW 06:50:54 10° SSW
Cosmos 1766 Rocket 4.1 06:41:58 10° SW 06:45:57 35° WNW 06:49:57 10° N
Cosmos 1354 Rocket 4.0 06:41:05 10° SSW 06:46:23 82° WNW 06:51:44 10° NNE
Meteor 1-31 Rocket 3.6 06:43:46 10° N 06:47:06 28° WNW 06:50:27 10° WSW
Cosmos 2263 4.2 06:46:41 10° SW 06:52:21 62° NW 06:58:05 10° NNE
USA 238 DEB 3.9 06:48:23 10° WSW 06:54:54 54° NNW 07:01:50 10° NE
USA 238 3.9 06:48:29 10° WSW 06:54:59 54° NNW 07:01:56 10° NE
USA 215 4.4 06:50:20 10° S 06:55:36 26° SW 07:00:24 12° WNW
OPS 6432 4.2 06:54:36 16° NW 06:56:47 74° NE 06:59:59 10° SE
FALCON 9 DEB 3.2 06:54:09 12° WSW 06:57:12 78° S 07:00:37 10° E
Cosmos 2297 Rocket 2.7 06:52:06 10° NNW 06:57:44 59° NE 07:03:19 10° SE
SMAP 3.1 06:54:27 10° NNE 06:59:10 88° ESE 07:03:50 10° SSW
H-2A R/B 4.2 06:57:43 10° NNW 07:00:03 16° WNW 07:02:23 10° W
Cosmos 1862 4.3 06:57:31 10° WSW 07:00:47 24° WNW 07:04:05 10° N
FengYun 1-2 T 4.2 06:56:50 10° NNE 07:02:22 84° WNW 07:07:51 10° SSW
COSMO-SKYMED 1 4.4 07:01:07 10° WSW 07:02:49 12° W 07:03:00 12° W
CZ-4 R/B 4.3 07:02:22 10° NE 07:04:53 16° E 07:07:23 10° SE
CZ-2D R/B 3.6 07:01:45 10° NNE 07:05:33 68° ESE 07:09:18 10° S
Cosmos 2369 Rocket 2.6 07:00:54 10° WSW 07:06:11 41° NW 07:11:31 10° NNE
CZ-4B R/B 3.0 07:07:23 10° N 07:10:45 38° WNW 07:14:04 10° SW
Cosmos 2228 Rocket 3.2 07:06:52 10° NNW 07:11:17 60° W 07:15:44 10° S
Cosmos 1538 Rocket 4.1 07:06:17 10° NNW 07:11:28 58° WSW 07:16:33 10° S
H-2A R/B 2.5 07:07:39 10° NNE 07:12:34 63° ESE 07:17:26 10° S
Nadezhda 4 Rocket 4.1 07:06:48 10° SSW 07:12:51 56° WNW 07:19:02 10° N
CZ-4B R/B 1.8 07:10:38 10° S 07:13:48 40° W 07:16:56 10° NNW
Cosmos 1607 4.0 07:07:54 10° NW 07:14:11 75° SW 07:20:20 10° SSE
Lacrosse 4 Rocket 2.8 07:10:35 10° NNW 07:14:39 34° NE 07:18:46 10° ESE
Meteor 2-4 Rocket 4.2 07:12:25 10° N 07:18:24 71° ENE 07:24:16 10° SSE
Meteor 1-19 Rocket 4.2 07:13:02 10° NNW 07:18:43 73° W 07:24:12 10° S
Cosmos 1408 Rocket 4.2 07:17:26 10° SW 07:21:18 32° WNW 07:25:11 10° N
Cosmos 2344 4.1 07:14:33 10° W 07:21:44 46° NNW 07:30:25 10° ENE
Cosmos 2263 Rocket 3.8 07:19:50 10° NNW 07:24:26 25° NE 07:29:02 10° E
USA 32 4.4 07:20:40 10° NNW 07:25:37 44° W 07:30:34 10° SSW
AQUARIUS 4.2 07:22:03 10° N 07:26:31 61° WNW 07:30:57 10° SSW
Cosmos 1092 Rocket 4.0 07:20:52 10° SSW 07:27:07 71° WNW 07:33:28 10° N
Cosmos 1743 Rocket 3.8 07:24:21 10° SSW 07:28:34 45° WNW 07:32:47 10° N
Cosmos 1656 Rocket 4.1 07:24:25 10° WSW 07:29:28 37° NW 07:34:33 10° NNE
PSLV R/B 3.8 07:25:35 10° N 07:29:28 68° WNW 07:33:25 10° SSW
Meteor 1-20 Rocket 4.2 07:24:28 10° SSW 07:30:02 71° WNW 07:35:46 10° N
deb Chang Zheng 4 4.3 07:27:04 10° NNE 07:31:19 58° ESE 07:35:31 10° S
FALCON 9 DEB 2.7 07:28:58 10° W 07:31:52 82° S 07:34:46 10° E
Cosmos 1428 Rocket 4.5 07:26:41 10° SSW 07:32:48 73° WNW 07:38:57 10° N
Cosmos 2227 Rocket 2.4 07:27:22 10° NNW 07:33:04 74° ENE 07:38:42 10° SE
Cosmos 1680 Rocket 3.7 07:28:22 10° NNW 07:33:43 84° ENE 07:39:01 10° SSE
Cosmos 1943 Rocket 3.5 07:31:51 10° WNW 07:36:03 21° NNW 07:40:16 10° NNE
CZ-4B DEB 4.2 07:31:04 10° NNE 07:36:33 76° WNW 07:41:59 10° SSW
